ASGARDIA 1 (43049 NORAD) Tracking and Keplerian Element Data

This shows tracking and keplerian element data for the satellite.

Feedback or suggestion? Click here.




ElementValue
Catalog43049
NameASGARDIA 1
Epoch Orbit21429
Epoch Day268.37134338
Epoch Year2021
RAAN295.3941
Inclination51.6369
Eccentricity0.0002384
Argument of Perigee10.2169
Mean Anonmoly349.8868
Mean Motion15.49869574
Decay Rate0.00013736
L11 43049U 17071N 21268.37134338 .00013736 00000-0 24937-3 0 9995
L22 43049 51.6369 295.3941 0002384 10.2169 349.8868 15.49869574214293

Live tracking and technical data element details for ASGARDIA 1 (NORAD 43049). ASGARDIA 1 can be tracked NOW for your location showing map with azimuth and elevation plus other details from your city location.

Track the satellite on the map from your city or location and see movement details for azimuth, elevation, latitude, longitude, range, height, and movement on the map or in text.







IsCatalogInMostPopularTable: catalog: 43049, numindb: 542
Update: records affected: 1



GetName: 43049 ASGARDIA 1

Hit Count: updated at: Mon, 27 Sep 2021 01:38:22 GMT